Location: Musselshell
(46.5176°N, 108.0911°W)
Time: 14:37:49
(UTC+00:00)

AO-91 - Pass Details

Date: 01 July 2022
Orbit: 450 x 796 km, 97.7° (Epoch: 17 August)

Event Time Altitude Azimuth Distance (km) Brightness Sun altitude
Rises 07:20:12 0° 354° (N) 2,542 ? -20.4°
Reaches altitude 10° 07:23:17 10° 324° (NW) 1,618 ? -20.4°
Maximum altitude 07:24:46 12° 298° (WNW) 1,460 ? -20.4°
Drops below altitude 10° 07:26:14 10° 272° (W) 1,592 ? -20.3°
Enters shadow 07:26:29 - 268° (W) 1,642 ? -20.3°
